User: anonymous   Login
Location: Newark
(40.3500°N, 15.2333°E)
Time: 12:29:06
(UTC+00:00)
Language:

KAITUO 1B - Orbit

View from above orbital plane
View from above orbital plane
View from above satellite
View from above satellite

Ground track
Ground track

The orbit data is extracted from the following two-line orbital elements,

1 40912U 15049P   20049.16120009  .00000740  00000-0  37384-4 0  9999
2 40912  97.4506  58.3987 0015923  43.8828  20.4756 15.20071977244443
Epoch (UTC): 18 February 2020 03:52:07
Eccentricity: 0.0015923
inclination: 97.4506°
perigee height: 494 km
apogee height: 516 km
right ascension of ascending node: 58.3987°
argument of perigee: 43.8828°
revolutions per day: 15.20071977
mean anomaly at epoch: 20.4756°
orbit number at epoch: 24444

The dashed part of the orbit path shows where the satellite is in the earth's shadow,  

DLR